Regional Weather Roundup
Issued by NWS

Home | Current Version | Previous Version | Graphics & Text | Print | Product List | Glossary On
Versions: 1 2 3 4 5 6 7 8 9 10 11 12 13 14 15 16 17 18 19 20 21 22 23 24 25 26 27 28 29 30 31 32 33 34 35 36 37 38 39 40 41 42 43 44 45 46 47 48 49 50
000
ASUS43 KDTX 240610
RWRMI
MICHIGAN HOURLY REGIONAL WEATHER ROUNDUP
NATIONAL WEATHER SERVICE DETROIT/PONTIAC MI
200 AM EDT MON APR 24 2017

NOTE: "FAIR" INDICATES FEW OR NO CLOUDS BELOW 12,000 FEET WITH NO
SIGNIFICANT WEATHER AND/OR OBSTRUCTION TO VISIBILITY.

MIZ047>049-052>055-059>063-066>070-074>076-081>083-240700-
SOUTHEAST LOWER MICHIGAN

CITY           SKY/WX    TMP DP  RH WIND       PRES   REMARKS
ADRIAN         CLEAR     42  36  79 N5        30.05F
6HR MIN TEMP:  42; 6HR MAX TEMP:  63;

ALMA           MOCLDY    43  39  85 NE5       30.10S
ANN ARBOR      CLEAR     44  33  65 N5        30.05F
BAD AXE        PTCLDY    39  33  80 N6        30.12F WCI  34
6HR MIN TEMP:  38; 6HR MAX TEMP:  44;

CARO           MOCLDY    40  37  89 E3        30.11F
DETROIT CITY   CLEAR     44  39  82 N6        30.08F
6HR MIN TEMP:  44; 6HR MAX TEMP:  61;

DETROIT        PTCLDY    48  32  53 NE3       30.07F
6HR MIN TEMP:  47; 6HR MAX TEMP:  62;

FLINT          CLEAR     43  37  79 NE8       30.09S
6HR MIN TEMP:  42; 6HR MAX TEMP:  65;

GROSSE ILE     CLEAR     46  39  77 E7        30.05F
6HR MIN TEMP:  43; 6HR MAX TEMP:  57;

HILLSDALE      CLEAR     43  34  70 CALM      30.04S
HOWELL         CLEAR     46  38  75 N5        30.06S
6HR MIN TEMP:  45; 6HR MAX TEMP:  64;


CITY           SKY/WX    TMP DP  RH WIND       PRES   REMARKS
JACKSON        CLEAR     47  37  68 CALM      30.05S
6HR MIN TEMP:  42; 6HR MAX TEMP:  66;

LAMBERTVILLE   CLEAR     40  36  87 CALM      30.04F
6HR MIN TEMP:  40; 6HR MAX TEMP:  60;

LANSING        CLOUDY    44  38  79 E5        30.08S
6HR MIN TEMP:  44; 6HR MAX TEMP:  67;

LAPEER         FAIR      40  37  87 CALM      30.09F
6HR MIN TEMP:  40; 6HR MAX TEMP:  60;

MASON          PTCLDY    46  42  85 NE3       30.07R
MONROE         PTCLDY    40  38  91 N8        30.05F WCI  35
6HR MIN TEMP:  40; 6HR MAX TEMP:  59;

MT. CLEMENS    CLEAR     39  39  99 N7        30.07F WCI  34
6HR MIN TEMP:  39; 6HR MAX TEMP:  56;

PONTIAC        CLEAR     43  37  79 E7        30.07S
6HR MIN TEMP:  43; 6HR MAX TEMP:  63;

PORT HOPE        N/A     41  35  79 NE13      30.12R
6HR MIN TEMP:  40; 6HR MAX TEMP:  41;

PORT HURON     CLEAR     39  36  87 N3        30.10S
TRI CITIES     MOCLDY    45  42  89 E9        30.11S
6HR MIN TEMP:  45; 6HR MAX TEMP:  50;

MIDLAND        FAIR      43  38  80 E3        30.11R
6HR MIN TEMP:  43; 6HR MAX TEMP:  49;

TROY           CLEAR     44  35  71 NE7       30.10S
SAGINAW HB     CLOUDY    41  36  81 NE6       30.10F
$$
MIZ043>046-050>051-056>058-064>065-071>073-077>080-240700-
SOUTHWEST LOWER MICHIGAN

CITY           SKY/WX    TMP DP  RH WIND       PRES   REMARKS
BATTLE CREEK   PTCLDY    47  36  65 E5        30.06R
6HR MIN TEMP:  46; 6HR MAX TEMP:  65;

BENTON HARBOR  CLEAR     39  32  76 CALM      30.04S
6HR MIN TEMP:  38; 6HR MAX TEMP:  59;

BIG RAPIDS     CLEAR     42  34  73 E3        30.09S
6HR MIN TEMP:  42; 6HR MAX TEMP:  62;

COLDWATER      CLEAR     46  38  74 CALM      30.04F
6HR MIN TEMP:  44; 6HR MAX TEMP:  66;

FREMONT        FAIR      47  37  70 E10       30.06S
HOLLAND        PTCLDY    46  35  65 N5        30.05S
6HR MIN TEMP:  43; 6HR MAX TEMP:  60;

GRAND RAPIDS   PTCLDY    46  41  82 E8        30.07R
6HR MIN TEMP:  46; 6HR MAX TEMP:  63;

IONIA          FAIR      45  39  78 NE8       30.07S
6HR MIN TEMP:  45; 6HR MAX TEMP:  66;

KALAMAZOO      CLOUDY    47  33  58 CALM      30.05S
6HR MIN TEMP:  46; 6HR MAX TEMP:  67;

LUDINGTON      CLEAR     38  33  82 CALM      30.07S
6HR MIN TEMP:  38; 6HR MAX TEMP:  49;

MARSHALL       PTCLDY    46  37  71 CALM      30.04F
6HR MIN TEMP:  43; 6HR MAX TEMP:  66;

MOUNT PLEASANT CLOUDY    41  34  75 CALM      30.09F
6HR MIN TEMP:  41; 6HR MAX TEMP:  56;

MUSKEGON       CLEAR     43  36  76 E3        30.05F
6HR MIN TEMP:  42; 6HR MAX TEMP:  51;

SOUTH HAVEN    CLEAR     39  34  80 CALM      30.04F
$$
MIZ016>042-240700-
NORTHERN LOWER MICHIGAN

CITY           SKY/WX    TMP DP  RH WIND       PRES   REMARKS
ALPENA         MOCLDY    35  30  82 N5        30.15S WCI  31
6HR MIN TEMP:  35; 6HR MAX TEMP:  45;

BEAVER ISLAND  MOCLDY    33  27  78 NE5       30.16F WCI  28
6HR MIN TEMP:  31; 6HR MAX TEMP:  38;

BELLAIRE       CLEAR     35  29  79 CALM      30.14S
6HR MIN TEMP:  35; 6HR MAX TEMP:  43;

CADILLAC       CLEAR     33  28  82 CALM      30.09S
CHARLEVOIX     CLOUDY    37  25  61 E8        30.17S WCI  31
FRANKFORT      CLEAR     38  25  58 E7        30.10F WCI  33
GAYLORD        MOCLDY    37  21  52 NE6       30.12S WCI  32
6HR MIN TEMP:  37; 6HR MAX TEMP:  47;

GRAYLING       CLEAR     34  28  78 CALM      30.13S
6HR MIN TEMP:  33; 6HR MAX TEMP:  52;

HARBOR SPRINGS PTCLDY    33  25  72 NE7       30.15S WCI  27
HOUGHTON LAKE  CLEAR     39  30  70 E7        30.11F WCI  34
6HR MIN TEMP:  39; 6HR MAX TEMP:  56;

MANISTEE       CLEAR     38  29  70 E9        30.08F WCI  31
OSCODA         CLOUDY    40  28  61 N7        30.13R
6HR MIN TEMP:  40; 6HR MAX TEMP:  45;

PELLSTON       PTCLDY    32  25  75 N3        30.16F
6HR MIN TEMP:  32; 6HR MAX TEMP:  42;

ROGERS CITY    CLOUDY    36  31  82 NW3       30.17R
TRAVERSE CITY  CLEAR     38  26  62 CALM      30.12S
6HR MIN TEMP:  38; 6HR MAX TEMP:  41;

$$
MIZ007>008-015-240700-
EASTERN UPPER MICHIGAN

CITY           SKY/WX    TMP DP  RH WIND       PRES   REMARKS
KINROSS        CLOUDY    32  26  78 N3        30.15F
6HR MIN TEMP:  31; 6HR MAX TEMP:  33;

MACKINAC ISLAN PTCLDY    32  25  74 NE6       30.16S WCI  26
NEWBERRY       CLOUDY    30  25  83 CALM      30.16S
6HR MIN TEMP:  30; 6HR MAX TEMP:  32;

S. S. MARIE    CLOUDY    36  27  69 CALM      30.15S
6HR MIN TEMP:  34; 6HR MAX TEMP:  36;

MUNISING         N/A     32  24  72 NE5       30.16F WCI  27
6HR MIN TEMP:  32; 6HR MAX TEMP:  33;

$$
MIZ004>006-011>014-085-240700-
CENTRAL UPPER MICHIGAN

CITY           SKY/WX    TMP DP  RH WIND       PRES   REMARKS
MANISTIQUE     CLOUDY    30  24  78 NE7       30.15F WCI  23
6HR MIN TEMP:  30; 6HR MAX TEMP:  37;

ESCANABA       PTCLDY    33  23  66 NE7       30.14F WCI  27
6HR MIN TEMP:  32; 6HR MAX TEMP:  38;

MENOMINEE      CLEAR     35  26  69 E14       30.14S WCI  26
6HR MIN TEMP:  35; 6HR MAX TEMP:  39;

SAWYER-GWINN   MOCLDY    29  23  76 E5        30.13S WCI  24
6HR MIN TEMP:  29; 6HR MAX TEMP:  31;

$$
MIZ001>003-009>011-084-240700-
WESTERN UPPER MICHIGAN

CITY           SKY/WX    TMP DP  RH WIND       PRES   REMARKS
IRON MOUNTAIN  CLOUDY    31  17  56 E3        30.09F
6HR MIN TEMP:  31; 6HR MAX TEMP:  40;

HOUGHTON       CLOUDY    31  18  58 E9        30.13R WCI  23
6HR MIN TEMP:  30; 6HR MAX TEMP:  31;

COPPER HARBOR    N/A     32  21  64 CALM      30.17S
6HR MIN TEMP:  31; 6HR MAX TEMP:  32;

IRONWOOD       CLOUDY    32  25  75 E12       30.05S WCI  23
6HR MIN TEMP:  32; 6HR MAX TEMP:  37;

$$

ABBREVIATIONS USED IN REMARKS
   TC - TEMPERATURE IN CELSIUS
  WCI - WIND CHILL INDEX
   HX - HEAT INDEX
  VSB - VISIBILITY





USA.gov is the U.S. government's official web portal to all federal, state and local government web resources and services.